| time (UTC) | temp C | wind direction | speed KPH | gust KPH | rain 1hr cm | rain 24hr cm | rain mn cm | humidity % | barometer mb |
| 20260507095643 | 13 | 154 | 0.0 | 4.8 | 0.00 | 0.05 | 0.05 | 85 | 1012.7 |
| 20260507095139 | 13 | 171 | 3.2 | 14.5 | 0.00 | 0.05 | 0.05 | 86 | 1013.1 |
| 20260507094636 | 13 | 160 | 3.2 | 9.7 | 0.00 | 0.05 | 0.05 | 88 | 1012.9 |
| 20260507094132 | 13 | 149 | 3.2 | 6.4 | 0.00 | 0.05 | 0.05 | 88 | 1012.6 |
| 20260507093630 | 13 | 173 | 0.0 | 4.8 | 0.00 | 0.05 | 0.05 | 88 | 1012.7 |
| 20260507093129 | 13 | 171 | 3.2 | 6.4 | 0.00 | 0.05 | 0.05 | 88 | 1012.9 |
| 20260507092625 | 13 | 144 | 3.2 | 4.8 | 0.00 | 0.05 | 0.05 | 90 | 1012.9 |
| 20260507092121 | 13 | 156 | 3.2 | 4.8 | 0.00 | 0.05 | 0.05 | 89 | 1012.7 |
| 20260507091618 | 13 | 162 | 1.6 | 4.8 | 0.00 | 0.05 | 0.05 | 89 | 1012.5 |
| 20260507091114 | 13 | 100 | 3.2 | 6.4 | 0.00 | 0.05 | 0.05 | 90 | 1012.4 |
| 20260507090610 | 13 | 216 | 1.6 | 8.0 | 0.05 | 0.05 | 0.05 | 89 | 1012.3 |
| 20260507090108 | 14 | 186 | 4.8 | 8.0 | 0.05 | 0.05 | 0.05 | 90 | 1012.4 |
| 20260507085604 | 14 | 134 | 6.4 | 12.9 | 0.05 | 0.03 | 0.03 | 88 | 1012.5 |
| 20260507085101 | 14 | 158 | 3.2 | 16.1 | 0.13 | 0.03 | 0.03 | 87 | 1012.1 |
| 20260507084558 | 15 | 137 | 4.8 | 4.8 | 0.13 | 0.03 | 0.03 | 90 | 1012.4 |
| 20260507084055 | 15 | 156 | 3.2 | 8.0 | 0.05 | 0.00 | 0.00 | 89 | 1012.1 |
| 20260507083551 | 15 | 179 | 4.8 | 8.0 | 0.00 | 0.00 | 0.00 | 89 | 1012.0 |
| 20260507083048 | 15 | 161 | 8.0 | 12.9 | 0.00 | 0.00 | 0.00 | 88 | 1012.1 |
| 20260507082544 | 16 | 241 | 3.2 | 11.3 | 0.00 | 0.00 | 0.00 | 88 | 1012.1 |
| 20260507082041 | 16 | 199 | 3.2 | 12.9 | 0.00 | 0.00 | 0.00 | 88 | 1012.0 |
| 20260507081537 | 16 | 179 | 9.7 | 9.7 | 0.00 | 0.00 | 0.00 | 87 | 1012.2 |
| 20260507081034 | 17 | 293 | 4.8 | 9.7 | 0.00 | 0.00 | 0.00 | 87 | 1011.8 |
| 20260507080530 | 18 | 193 | 4.8 | 8.0 | 0.00 | 0.00 | 0.00 | 89 | 1011.8 |
| 20260507080027 | 18 | 160 | 3.2 | 8.0 | 0.00 | 0.00 | 0.00 | 92 | 1011.5 |
| 20260507075522 | 18 | 178 | 3.2 | 4.8 | 0.00 | 0.00 | 0.00 | 92 | 1011.3 |
| 20260507075019 | 18 | 167 | 4.8 | 4.8 | 0.00 | 0.00 | 0.00 | 92 | 1011.2 |
| 20260507074515 | 18 | 179 | 3.2 | 4.8 | 0.00 | 0.00 | 0.00 | 92 | 1010.5 |
| 20260507074014 | 18 | 174 | 3.2 | 3.2 | 0.00 | 0.00 | 0.00 | 92 | 1011.0 |
| 20260507073510 | 18 | 170 | 3.2 | 4.8 | 0.00 | 0.00 | 0.00 | 92 | 1011.2 |
| 20260507073006 | 18 | 162 | 3.2 | 3.2 | 0.00 | 0.00 | 0.00 | 92 | 1011.1 |
| 20260507072504 | 18 | 162 | 3.2 | 4.8 | 0.00 | 0.00 | 0.00 | 92 | 1011.2 |
| 20260507072001 | 18 | 167 | 1.6 | 3.2 | 0.00 | 0.00 | 0.00 | 91 | 1011.2 |
| 20260507071458 | 18 | 189 | 3.2 | 3.2 | 0.00 | 0.00 | 0.00 | 91 | 1011.3 |
| 20260507070954 | 18 | 178 | 3.2 | 3.2 | 0.00 | 0.00 | 0.00 | 91 | 1011.3 |
| 20260507070452 | 19 | 174 | 4.8 | 4.8 | 0.00 | 0.00 | 0.00 | 91 | 1011.3 |
| 20260507065948 | 19 | 180 | 3.2 | 4.8 | 0.00 | 0.00 | 0.00 | 91 | 1011.1 |
| 20260507065445 | 19 | 167 | 3.2 | 3.2 | 0.00 | 0.00 | 0.00 | 90 | 1010.9 |
| 20260507064942 | 19 | 156 | 3.2 | 3.2 | 0.00 | 0.00 | 0.00 | 90 | 1010.9 |
| 20260507064440 | 19 | 166 | 3.2 | 4.8 | 0.00 | 0.00 | 0.00 | 89 | 1010.8 |
| 20260507063938 | 19 | 146 | 1.6 | 3.2 | 0.00 | 0.00 | 0.00 | 89 | 1010.4 |
| 20260507063434 | 19 | 144 | 1.6 | 3.2 | 0.00 | 0.00 | 0.00 | 89 | 1010.6 |
| 20260507062931 | 19 | 158 | 3.2 | 4.8 | 0.00 | 0.00 | 0.00 | 89 | 1010.4 |
| 20260507062429 | 19 | 157 | 3.2 | 3.2 | 0.00 | 0.00 | 0.00 | 88 | 1010.5 |
| 20260507061926 | 19 | 153 | 3.2 | 4.8 | 0.00 | 0.00 | 0.00 | 89 | 1010.1 |
| 20260507061424 | 19 | 161 | 3.2 | 3.2 | 0.00 | 0.00 | 0.00 | 89 | 1010.2 |
| 20260507060923 | 19 | 156 | 3.2 | 3.2 | 0.00 | 0.00 | 0.00 | 89 | 1010.2 |
| 20260507060419 | 19 | 158 | 3.2 | 3.2 | 0.00 | 0.00 | 0.00 | 88 | 1010.1 |
| 20260507055916 | 19 | 159 | 3.2 | 3.2 | 0.00 | 0.00 | 0.00 | 88 | 1010.1 |
| 20260507055410 | 19 | 165 | 3.2 | 3.2 | 0.00 | 0.00 | 0.00 | 88 | 1010.4 |
| 20260507054908 | 19 | 165 | 3.2 | 3.2 | 0.00 | 0.00 | 0.00 | 88 | 1010.2 |
| 20260507054404 | 19 | 158 | 3.2 | 3.2 | 0.00 | 0.00 | 0.00 | 88 | 1010.4 |
| 20260507053901 | 19 | 145 | 3.2 | 3.2 | 0.00 | 0.00 | 0.00 | 88 | 1010.3 |
| 20260507053353 | 19 | 119 | 1.6 | 3.2 | 0.00 | 0.00 | 0.00 | 88 | 1010.2 |
| 20260507052852 | 19 | 167 | 1.6 | 3.2 | 0.00 | 0.00 | 0.00 | 88 | 1010.4 |
| 20260507052348 | 19 | 161 | 1.6 | 3.2 | 0.00 | 0.00 | 0.00 | 88 | 1010.4 |
| 20260507051846 | 19 | 138 | 3.2 | 3.2 | 0.00 | 0.00 | 0.00 | 88 | 1010.6 |
| 20260507051343 | 19 | 151 | 1.6 | 3.2 | 0.00 | 0.00 | 0.00 | 88 | 1010.9 |
| 20260507050839 | 19 | 162 | 1.6 | 3.2 | 0.00 | 0.00 | 0.00 | 88 | 1010.8 |
| 20260507050336 | 19 | 170 | 3.2 | 3.2 | 0.00 | 0.00 | 0.00 | 88 | 1011.0 |
| 20260507045833 | 19 | 141 | 3.2 | 3.2 | 0.00 | 0.00 | 0.00 | 88 | 1011.5 |
| 20260507045329 | 19 | 151 | 1.6 | 3.2 | 0.00 | 0.00 | 0.00 | 88 | 1011.3 |
| 20260507044827 | 19 | 162 | 1.6 | 3.2 | 0.00 | 0.00 | 0.00 | 88 | 1011.4 |
| 20260507044324 | 19 | 153 | 3.2 | 3.2 | 0.00 | 0.00 | 0.00 | 88 | 1011.4 |
| 20260507043819 | 19 | 116 | 1.6 | 3.2 | 0.00 | 0.00 | 0.00 | 88 | 1011.6 |
| 20260507043316 | 19 | 144 | 3.2 | 3.2 | 0.00 | 0.00 | 0.00 | 88 | 1011.4 |
| 20260507042812 | 19 | 159 | 3.2 | 3.2 | 0.00 | 0.00 | 0.00 | 88 | 1011.5 |
| 20260507042308 | 19 | 157 | 3.2 | 3.2 | 0.00 | 0.00 | 0.00 | 88 | 1011.8 |
| 20260507041805 | 19 | 162 | 3.2 | 4.8 | 0.00 | 0.00 | 0.00 | 88 | 1011.7 |
| 20260507041302 | 19 | 151 | 3.2 | 3.2 | 0.00 | 0.00 | 0.00 | 88 | 1011.7 |
| 20260507040759 | 19 | 146 | 3.2 | 3.2 | 0.00 | 0.00 | 0.00 | 87 | 1011.2 |
| 20260507040255 | 19 | 134 | 1.6 | 3.2 | 0.00 | 0.00 | 0.00 | 87 | 1011.0 |
| 20260507035751 | 19 | 174 | 3.2 | 4.8 | 0.00 | 0.18 | 0.18 | 87 | 1011.2 |
| 20260507035246 | 19 | 152 | 3.2 | 3.2 | 0.00 | 0.18 | 0.18 | 88 | 1011.4 |
| 20260507034745 | 19 | 128 | 1.6 | 3.2 | 0.00 | 0.18 | 0.18 | 88 | 1011.5 |
| 20260507034241 | 19 | 144 | 3.2 | 3.2 | 0.00 | 0.18 | 0.18 | 87 | 1011.9 |
| 20260507033740 | 19 | 130 | 3.2 | 3.2 | 0.00 | 0.18 | 0.18 | 87 | 1011.9 |
| 20260507033237 | 19 | 161 | 3.2 | 4.8 | 0.00 | 0.18 | 0.18 | 88 | 1011.7 |
| 20260507032734 | 19 | 160 | 3.2 | 3.2 | 0.00 | 0.18 | 0.18 | 88 | 1011.5 |
| 20260507032230 | 19 | 166 | 1.6 | 3.2 | 0.00 | 0.18 | 0.18 | 87 | 1011.5 |
| 20260507031726 | 19 | 155 | 3.2 | 3.2 | 0.00 | 0.18 | 0.18 | 87 | 1011.6 |
| 20260507031223 | 19 | 147 | 3.2 | 4.8 | 0.00 | 0.18 | 0.18 | 88 | 1011.2 |
| 20260507030720 | 19 | 157 | 0.0 | 3.2 | 0.00 | 0.18 | 0.18 | 88 | 1011.0 |
| 20260507030218 | 19 | 178 | 3.2 | 3.2 | 0.00 | 0.18 | 0.18 | 87 | 1011.1 |
| 20260507025715 | 19 | 134 | 1.6 | 3.2 | 0.00 | 0.18 | 0.18 | 87 | 1011.1 |
| 20260507025212 | 19 | 157 | 3.2 | 4.8 | 0.00 | 0.18 | 0.18 | 88 | 1011.3 |
| 20260507024710 | 19 | 148 | 3.2 | 3.2 | 0.00 | 0.18 | 0.18 | 88 | 1010.9 |
| 20260507024207 | 19 | 145 | 3.2 | 3.2 | 0.00 | 0.18 | 0.18 | 88 | 1010.8 |
| 20260507023702 | 19 | 181 | 0.0 | 3.2 | 0.00 | 0.18 | 0.18 | 88 | 1011.0 |
| 20260507023159 | 19 | 166 | 3.2 | 3.2 | 0.00 | 0.18 | 0.18 | 88 | 1011.3 |
| 20260507022656 | 19 | 151 | 3.2 | 3.2 | 0.00 | 0.18 | 0.18 | 88 | 1011.1 |
| 20260507022152 | 19 | 156 | 3.2 | 3.2 | 0.00 | 0.18 | 0.18 | 88 | 1011.3 |
| 20260507021649 | 19 | 171 | 1.6 | 3.2 | 0.00 | 0.18 | 0.18 | 88 | 1011.3 |
| 20260507021144 | 19 | 160 | 1.6 | 4.8 | 0.00 | 0.18 | 0.18 | 88 | 1011.3 |
| 20260507020643 | 19 | 151 | 3.2 | 3.2 | 0.00 | 0.18 | 0.18 | 88 | 1011.6 |
| 20260507020138 | 19 | 164 | 3.2 | 3.2 | 0.00 | 0.18 | 0.18 | 88 | 1011.3 |
| 20260507015637 | 19 | 164 | 3.2 | 3.2 | 0.00 | 0.18 | 0.18 | 88 | 1011.6 |
| 20260507015134 | 19 | 169 | 3.2 | 3.2 | 0.00 | 0.18 | 0.18 | 88 | 1011.5 |
| 20260507014631 | 19 | 165 | 3.2 | 3.2 | 0.00 | 0.18 | 0.18 | 87 | 1011.6 |
| 20260507014126 | 19 | 168 | 3.2 | 3.2 | 0.00 | 0.18 | 0.18 | 87 | 1011.6 |
| 20260507013623 | 19 | 165 | 3.2 | 3.2 | 0.00 | 0.18 | 0.18 | 87 | 1011.5 |
| 20260507013120 | 19 | 164 | 3.2 | 3.2 | 0.00 | 0.18 | 0.18 | 87 | 1011.4 |
| 20260507012618 | 19 | 152 | 3.2 | 3.2 | 0.00 | 0.18 | 0.18 | 87 | 1011.6 |
| 20260507012113 | 19 | 178 | 3.2 | 3.2 | 0.00 | 0.18 | 0.18 | 87 | 1011.3 |
| 20260507011612 | 19 | 167 | 3.2 | 3.2 | 0.00 | 0.18 | 0.18 | 87 | 1011.4 |
| 20260507011108 | 19 | 170 | 3.2 | 3.2 | 0.00 | 0.18 | 0.18 | 86 | 1011.5 |
| 20260507010603 | 19 | 170 | 3.2 | 3.2 | 0.00 | 0.18 | 0.18 | 86 | 1011.6 |
| 20260507010058 | 19 | 155 | 3.2 | 3.2 | 0.00 | 0.18 | 0.18 | 86 | 1011.2 |
| 20260507005556 | 19 | 141 | 1.6 | 3.2 | 0.00 | 0.18 | 0.18 | 85 | 1011.0 |
| 20260507005052 | 19 | 142 | 1.6 | 3.2 | 0.00 | 0.18 | 0.18 | 85 | 1011.1 |
| 20260507004549 | 19 | 139 | 0.0 | 3.2 | 0.00 | 0.18 | 0.18 | 86 | 1011.1 |
| 20260507004047 | 19 | 129 | 3.2 | 4.8 | 0.00 | 0.18 | 0.18 | 85 | 1011.4 |
| 20260507003542 | 19 | 156 | 0.0 | 3.2 | 0.00 | 0.18 | 0.18 | 85 | 1011.3 |
| 20260507003038 | 20 | 165 | 1.6 | 3.2 | 0.00 | 0.18 | 0.18 | 85 | 1011.4 |
| 20260507002535 | 20 | 169 | 3.2 | 3.2 | 0.00 | 0.18 | 0.18 | 84 | 1011.3 |
| 20260507002030 | 20 | 156 | 3.2 | 3.2 | 0.00 | 0.18 | 0.18 | 84 | 1011.3 |
| 20260507001527 | 20 | 154 | 3.2 | 3.2 | 0.00 | 0.18 | 0.18 | 84 | 1011.3 |
| 20260507001025 | 20 | 151 | 1.6 | 4.8 | 0.00 | 0.18 | 0.18 | 83 | 1011.3 |
| 20260507000520 | 20 | 155 | 1.6 | 4.8 | 0.00 | 0.18 | 0.18 | 83 | 1011.3 |
| 20260507000016 | 20 | 162 | 3.2 | 4.8 | 0.00 | 0.18 | 0.18 | 82 | 1011.4 |
| 20260506235514 | 20 | 161 | 3.2 | 3.2 | 0.00 | 0.18 | 0.18 | 82 | 1011.2 |
| 20260506235009 | 20 | 178 | 1.6 | 4.8 | 0.00 | 0.18 | 0.18 | 81 | 1011.3 |
| 20260506234508 | 20 | 175 | 3.2 | 3.2 | 0.00 | 0.18 | 0.18 | 81 | 1011.2 |
| 20260506234004 | 20 | 171 | 3.2 | 4.8 | 0.00 | 0.18 | 0.18 | 80 | 1011.2 |
| 20260506233501 | 20 | 154 | 3.2 | 4.8 | 0.00 | 0.18 | 0.18 | 80 | 1011.0 |
| 20260506232957 | 21 | 148 | 1.6 | 4.8 | 0.00 | 0.18 | 0.18 | 79 | 1010.9 |
| 20260506232454 | 21 | 144 | 1.6 | 3.2 | 0.00 | 0.18 | 0.18 | 79 | 1011.3 |
| 20260506231949 | 21 | 154 | 3.2 | 3.2 | 0.00 | 0.18 | 0.18 | 78 | 1011.2 |
| 20260506231447 | 21 | 175 | 1.6 | 4.8 | 0.00 | 0.18 | 0.18 | 77 | 1011.3 |
| 20260506230944 | 21 | 156 | 3.2 | 3.2 | 0.00 | 0.18 | 0.18 | 77 | 1011.0 |
| 20260506230440 | 21 | 173 | 3.2 | 3.2 | 0.00 | 0.18 | 0.18 | 77 | 1010.9 |
| 20260506225937 | 21 | 168 | 3.2 | 3.2 | 0.00 | 0.18 | 0.18 | 76 | 1011.0 |
| 20260506225435 | 21 | 174 | 1.6 | 3.2 | 0.00 | 0.18 | 0.18 | 77 | 1011.2 |
| 20260506224931 | 21 | 158 | 1.6 | 3.2 | 0.00 | 0.18 | 0.18 | 76 | 1011.1 |
| 20260506224429 | 21 | 173 | 1.6 | 3.2 | 0.00 | 0.18 | 0.18 | 77 | 1011.3 |
| 20260506223925 | 21 | 162 | 3.2 | 3.2 | 0.00 | 0.18 | 0.18 | 78 | 1011.3 |
| 20260506223420 | 21 | 145 | 0.0 | 3.2 | 0.00 | 0.18 | 0.18 | 78 | 1010.9 |
| 20260506222918 | 21 | 168 | 1.6 | 3.2 | 0.00 | 0.18 | 0.18 | 77 | 1011.2 |
| 20260506222414 | 21 | 154 | 1.6 | 3.2 | 0.00 | 0.18 | 0.18 | 77 | 1011.2 |
| 20260506221911 | 21 | 163 | 3.2 | 4.8 | 0.00 | 0.18 | 0.18 | 77 | 1011.3 |
| 20260506221408 | 21 | 145 | 3.2 | 4.8 | 0.00 | 0.18 | 0.18 | 77 | 1011.1 |
| 20260506220900 | 21 | 134 | 4.8 | 4.8 | 0.00 | 0.18 | 0.18 | 77 | 1011.1 |
| 20260506220355 | 21 | 146 | 4.8 | 4.8 | 0.00 | 0.18 | 0.18 | 77 | 1011.0 |
| 20260506215853 | 21 | 175 | 3.2 | 4.8 | 0.00 | 0.18 | 0.18 | 77 | 1010.9 |
| 20260506215348 | 21 | 166 | 3.2 | 3.2 | 0.00 | 0.18 | 0.18 | 77 | 1011.0 |
| 20260506214844 | 21 | 177 | 1.6 | 4.8 | 0.00 | 0.18 | 0.18 | 77 | 1011.1 |
| 20260506214341 | 21 | 145 | 3.2 | 4.8 | 0.00 | 0.18 | 0.18 | 77 | 1010.9 |
| 20260506213839 | 21 | 163 | 3.2 | 4.8 | 0.00 | 0.18 | 0.18 | 75 | 1011.2 |
| 20260506213336 | 21 | 127 | 3.2 | 4.8 | 0.00 | 0.18 | 0.18 | 76 | 1011.1 |
| 20260506212833 | 21 | 192 | 4.8 | 4.8 | 0.00 | 0.18 | 0.18 | 75 | 1011.1 |
| 20260506212329 | 21 | 118 | 1.6 | 4.8 | 0.00 | 0.18 | 0.18 | 76 | 1011.3 |
| 20260506211825 | 21 | 182 | 1.6 | 4.8 | 0.00 | 0.18 | 0.18 | 78 | 1011.4 |
| 20260506211321 | 21 | 118 | 3.2 | 3.2 | 0.00 | 0.18 | 0.18 | 77 | 1011.1 |
| 20260506210818 | 21 | 114 | 1.6 | 4.8 | 0.00 | 0.18 | 0.18 | 79 | 1011.2 |
| 20260506210315 | 21 | 147 | 0.0 | 3.2 | 0.00 | 0.18 | 0.18 | 78 | 1011.4 |
| 20260506205812 | 21 | 165 | 3.2 | 3.2 | 0.00 | 0.18 | 0.18 | 80 | 1011.2 |
| 20260506205308 | 21 | 145 | 1.6 | 4.8 | 0.00 | 0.18 | 0.18 | 79 | 1011.0 |
| 20260506204804 | 21 | 105 | 3.2 | 3.2 | 0.00 | 0.18 | 0.18 | 79 | 1011.3 |
| 20260506204303 | 21 | 180 | 1.6 | 4.8 | 0.00 | 0.18 | 0.18 | 80 | 1011.2 |
| 20260506203800 | 21 | 158 | 1.6 | 4.8 | 0.00 | 0.18 | 0.18 | 81 | 1011.3 |
| 20260506203257 | 21 | 139 | 1.6 | 4.8 | 0.00 | 0.18 | 0.18 | 83 | 1010.9 |
| 20260506202754 | 20 | 153 | 3.2 | 3.2 | 0.00 | 0.18 | 0.18 | 84 | 1010.9 |
| 20260506202251 | 20 | 153 | 1.6 | 1.6 | 0.00 | 0.18 | 0.18 | 84 | 1010.9 |
| 20260506201747 | 20 | 94 | 0.0 | 1.6 | 0.00 | 0.18 | 0.18 | 84 | 1011.1 |
| 20260506201244 | 20 | 162 | 1.6 | 3.2 | 0.00 | 0.18 | 0.18 | 83 | 1011.3 |
| 20260506200741 | 20 | 152 | 1.6 | 3.2 | 0.00 | 0.18 | 0.18 | 82 | 1011.1 |
| 20260506200237 | 20 | 164 | 3.2 | 3.2 | 0.00 | 0.18 | 0.18 | 83 | 1011.3 |
| 20260506195734 | 20 | 157 | 1.6 | 4.8 | 0.00 | 0.18 | 0.18 | 84 | 1011.2 |
| 20260506195230 | 20 | 155 | 3.2 | 4.8 | 0.00 | 0.18 | 0.18 | 84 | 1011.5 |
| 20260506194728 | 20 | 156 | 3.2 | 4.8 | 0.00 | 0.18 | 0.18 | 83 | 1010.9 |
| 20260506194224 | 20 | 165 | 1.6 | 4.8 | 0.00 | 0.18 | 0.18 | 84 | 1010.8 |
| 20260506193722 | 20 | 160 | 3.2 | 3.2 | 0.00 | 0.18 | 0.18 | 85 | 1010.6 |
| 20260506193219 | 20 | 177 | 3.2 | 4.8 | 0.00 | 0.18 | 0.18 | 85 | 1010.8 |
| 20260506192715 | 20 | 155 | 3.2 | 3.2 | 0.00 | 0.18 | 0.18 | 86 | 1010.6 |
| 20260506192212 | 19 | 155 | 1.6 | 3.2 | 0.00 | 0.18 | 0.18 | 85 | 1010.9 |
| 20260506191709 | 19 | 212 | 1.6 | 4.8 | 0.00 | 0.18 | 0.18 | 87 | 1011.3 |
| 20260506191205 | 19 | 151 | 0.0 | 4.8 | 0.00 | 0.18 | 0.18 | 87 | 1011.3 |
| 20260506190703 | 18 | 139 | 3.2 | 4.8 | 0.00 | 0.18 | 0.18 | 88 | 1011.7 |
| 20260506190159 | 18 | 180 | 1.6 | 4.8 | 0.00 | 0.18 | 0.18 | 88 | 1011.5 |
| 20260506185656 | 18 | 116 | 3.2 | 3.2 | 0.00 | 0.18 | 0.18 | 89 | 1011.6 |
| 20260506185152 | 18 | 146 | 3.2 | 4.8 | 0.00 | 0.18 | 0.18 | 89 | 1011.8 |
| 20260506184650 | 18 | 164 | 3.2 | 6.4 | 0.00 | 0.18 | 0.18 | 89 | 1012.0 |
| 20260506184147 | 18 | 71 | 3.2 | 4.8 | 0.00 | 0.18 | 0.18 | 90 | 1011.7 |
| 20260506183643 | 18 | 139 | 3.2 | 4.8 | 0.00 | 0.18 | 0.18 | 90 | 1011.8 |
| 20260506183139 | 18 | 172 | 1.6 | 4.8 | 0.00 | 0.18 | 0.18 | 89 | 1011.6 |
| 20260506182637 | 18 | 124 | 3.2 | 4.8 | 0.00 | 0.18 | 0.18 | 89 | 1011.6 |
| 20260506182134 | 18 | 73 | 1.6 | 4.8 | 0.00 | 0.18 | 0.18 | 89 | 1011.8 |
| 20260506181632 | 18 | 145 | 0.0 | 4.8 | 0.00 | 0.18 | 0.18 | 89 | 1012.0 |
| 20260506181129 | 18 | 152 | 3.2 | 4.8 | 0.00 | 0.18 | 0.18 | 89 | 1012.1 |
| 20260506180626 | 18 | 145 | 1.6 | 4.8 | 0.00 | 0.18 | 0.18 | 90 | 1012.7 |
| 20260506180122 | 18 | 156 | 3.2 | 6.4 | 0.00 | 0.18 | 0.18 | 90 | 1012.4 |
| 20260506175618 | 18 | 158 | 3.2 | 4.8 | 0.00 | 0.18 | 0.18 | 88 | 1012.5 |
| 20260506175114 | 18 | 111 | 3.2 | 4.8 | 0.00 | 0.18 | 0.18 | 88 | 1012.3 |
| 20260506174614 | 18 | 132 | 0.0 | 6.4 | 0.00 | 0.18 | 0.18 | 91 | 1012.5 |
| 20260506174110 | 18 | 183 | 3.2 | 6.4 | 0.00 | 0.18 | 0.18 | 91 | 1012.4 |
| 20260506173608 | 18 | 141 | 4.8 | 4.8 | 0.00 | 0.18 | 0.18 | 91 | 1012.4 |
| 20260506173104 | 18 | 137 | 3.2 | 4.8 | 0.00 | 0.18 | 0.18 | 91 | 1012.5 |
| 20260506172602 | 17 | 142 | 4.8 | 4.8 | 0.00 | 0.18 | 0.18 | 92 | 1012.3 |
| 20260506172057 | 17 | 146 | 4.8 | 6.4 | 0.00 | 0.18 | 0.18 | 92 | 1012.3 |
| 20260506171555 | 17 | 105 | 1.6 | 3.2 | 0.00 | 0.18 | 0.18 | 93 | 1012.4 |
| 20260506171053 | 17 | 108 | 1.6 | 4.8 | 0.00 | 0.18 | 0.18 | 93 | 1012.3 |
| 20260506170550 | 17 | 119 | 1.6 | 3.2 | 0.00 | 0.18 | 0.18 | 93 | 1012.4 |
| 20260506170047 | 17 | 137 | 3.2 | 3.2 | 0.05 | 0.18 | 0.18 | 94 | 1012.6 |
| 20260506165546 | 17 | 137 | 3.2 | 4.8 | 0.05 | 0.18 | 0.18 | 94 | 1012.9 |
| 20260506165041 | 17 | 138 | 1.6 | 6.4 | 0.00 | 0.18 | 0.18 | 94 | 1013.2 |
| 20260506164539 | 17 | 112 | 3.2 | 3.2 | 0.00 | 0.18 | 0.18 | 93 | 1012.8 |
| 20260506164036 | 17 | 126 | 4.8 | 4.8 | 0.00 | 0.18 | 0.18 | 93 | 1013.3 |
| 20260506163532 | 17 | 162 | 3.2 | 4.8 | 0.00 | 0.18 | 0.18 | 93 | 1013.4 |
| 20260506163027 | 17 | 183 | 3.2 | 6.4 | 0.00 | 0.18 | 0.18 | 93 | 1013.2 |
| 20260506162524 | 17 | 189 | 3.2 | 6.4 | 0.05 | 0.18 | 0.18 | 94 | 1012.9 |
| 20260506162021 | 17 | 138 | 3.2 | 4.8 | 0.05 | 0.18 | 0.18 | 94 | 1013.2 |
| 20260506161519 | 17 | 158 | 3.2 | 4.8 | 0.00 | 0.18 | 0.18 | 94 | 1012.9 |
| 20260506161015 | 17 | 150 | 3.2 | 4.8 | 0.00 | 0.18 | 0.18 | 94 | 1013.0 |
| 20260506160513 | 17 | 150 | 3.2 | 4.8 | 0.05 | 0.18 | 0.18 | 93 | 1013.0 |
| 20260506160010 | 17 | 119 | 0.0 | 3.2 | 0.05 | 0.18 | 0.18 | 93 | 1012.8 |
| 20260506155508 | 17 | 155 | 1.6 | 3.2 | 0.00 | 0.15 | 0.15 | 93 | 1013.1 |
| 20260506153640 | 17 | 115 | 1.6 | 3.2 | 0.00 | 0.15 | 0.15 | 92 | 1013.1 |
| 20260506153137 | 17 | 154 | 3.2 | 3.2 | 0.00 | 0.15 | 0.15 | 93 | 1012.9 |
| 20260506152634 | 17 | 103 | 1.6 | 3.2 | 0.00 | 0.15 | 0.15 | 93 | 1013.4 |
| 20260506152132 | 17 | 170 | 1.6 | 3.2 | 0.00 | 0.15 | 0.15 | 93 | 1013.4 |
| 20260506151630 | 16 | 123 | 3.2 | 3.2 | 0.00 | 0.15 | 0.15 | 93 | 1013.4 |
| 20260506151127 | 16 | 137 | 3.2 | 3.2 | 0.00 | 0.15 | 0.15 | 94 | 1013.5 |
| 20260506150624 | 16 | 147 | 3.2 | 3.2 | 0.00 | 0.15 | 0.15 | 94 | 1013.5 |
| 20260506150120 | 16 | 154 | 1.6 | 3.2 | 0.00 | 0.15 | 0.15 | 94 | 1013.7 |
| 20260506145618 | 16 | 148 | 3.2 | 3.2 | 0.00 | 0.15 | 0.15 | 95 | 1013.6 |
| 20260506145114 | 16 | 151 | 3.2 | 3.2 | 0.00 | 0.15 | 0.15 | 95 | 1013.5 |
| 20260506144611 | 16 | 145 | 1.6 | 3.2 | 0.05 | 0.15 | 0.15 | 95 | 1013.5 |
| 20260506144108 | 16 | 135 | 1.6 | 3.2 | 0.05 | 0.15 | 0.15 | 95 | 1013.6 |
| 20260506143606 | 16 | 137 | 3.2 | 3.2 | 0.05 | 0.15 | 0.15 | 94 | 1013.6 |
| 20260506143104 | 16 | 145 | 3.2 | 3.2 | 0.13 | 0.15 | 0.15 | 93 | 1013.7 |
| 20260506142602 | 16 | 129 | 1.6 | 3.2 | 0.23 | 0.15 | 0.15 | 93 | 1013.6 |
| 20260506142100 | 16 | 161 | 1.6 | 4.8 | 0.30 | 0.13 | 0.13 | 92 | 1013.8 |
| 20260506141557 | 16 | 139 | 3.2 | 3.2 | 0.43 | 0.10 | 0.10 | 91 | 1013.8 |
| 20260506141055 | 16 | 157 | 3.2 | 3.2 | 0.23 | 0.05 | 0.05 | 89 | 1013.8 |
| 20260506140552 | 17 | 151 | 1.6 | 3.2 | 0.05 | 0.03 | 0.03 | 88 | 1013.9 |
| 20260506140050 | 17 | 128 | 3.2 | 3.2 | 0.05 | 0.03 | 0.03 | 87 | 1014.0 |
| 20260506135546 | 17 | 91 | 3.2 | 3.2 | 0.05 | 0.03 | 0.03 | 85 | 1013.8 |
| 20260506135042 | 17 | 138 | 3.2 | 3.2 | 0.05 | 0.00 | 0.00 | 83 | 1013.9 |
| 20260506134539 | 17 | 119 | 1.6 | 3.2 | 0.05 | 0.00 | 0.00 | 79 | 1014.0 |
| 20260506134035 | 18 | 119 | 3.2 | 3.2 | 0.00 | 0.00 | 0.00 | 78 | 1013.7 |
| 20260506133532 | 18 | 185 | 0.0 | 4.8 | 0.00 | 0.00 | 0.00 | 75 | 1013.7 |
| 20260506133029 | 18 | 136 | 3.2 | 3.2 | 0.00 | 0.00 | 0.00 | 74 | 1013.7 |
| 20260506132526 | 18 | 146 | 0.0 | 3.2 | 0.00 | 0.00 | 0.00 | 75 | 1013.6 |
| 20260506132024 | 18 | 119 | 3.2 | 3.2 | 0.00 | 0.00 | 0.00 | 73 | 1013.6 |
| 20260506131521 | 18 | 159 | 3.2 | 3.2 | 0.00 | 0.00 | 0.00 | 73 | 1013.4 |
| 20260506131017 | 18 | 107 | 0.0 | 4.8 | 0.00 | 0.00 | 0.00 | 73 | 1013.6 |
| 20260506130514 | 18 | 100 | 3.2 | 4.8 | 0.00 | 0.00 | 0.00 | 73 | 1013.6 |
| 20260506130012 | 18 | 168 | 0.0 | 4.8 | 0.00 | 0.00 | 0.00 | 72 | 1013.7 |
| 20260506125510 | 18 | 94 | 3.2 | 3.2 | 0.00 | 0.00 | 0.00 | 73 | 1013.3 |
| 20260506125007 | 18 | 112 | 3.2 | 3.2 | 0.00 | 0.00 | 0.00 | 73 | 1013.8 |
| 20260506124505 | 18 | 95 | 3.2 | 4.8 | 0.00 | 0.00 | 0.00 | 74 | 1013.5 |
| 20260506124003 | 18 | 114 | 0.0 | 3.2 | 0.00 | 0.00 | 0.00 | 74 | 1013.7 |
| 20260506123500 | 17 | 126 | 1.6 | 3.2 | 0.00 | 0.00 | 0.00 | 74 | 1013.4 |
| 20260506122958 | 17 | 138 | 3.2 | 4.8 | 0.00 | 0.00 | 0.00 | 75 | 1013.6 |
| 20260506122454 | 17 | 124 | 1.6 | 3.2 | 0.00 | 0.00 | 0.00 | 75 | 1013.3 |
| 20260506121953 | 17 | 132 | 1.6 | 6.4 | 0.00 | 0.00 | 0.00 | 75 | 1013.2 |
| 20260506121450 | 17 | 149 | 3.2 | 4.8 | 0.00 | 0.00 | 0.00 | 74 | 1013.5 |
| 20260506120946 | 18 | 91 | 3.2 | 4.8 | 0.00 | 0.00 | 0.00 | 74 | 1013.4 |
| 20260506120444 | 18 | 105 | 1.6 | 4.8 | 0.00 | 0.00 | 0.00 | 74 | 1013.3 |
| 20260506115941 | 18 | 160 | 3.2 | 3.2 | 0.00 | 0.00 | 0.00 | 74 | 1013.4 |
| 20260506115439 | 18 | 152 | 1.6 | 4.8 | 0.00 | 0.00 | 0.00 | 73 | 1013.5 |
| 20260506114937 | 18 | 132 | 1.6 | 4.8 | 0.00 | 0.00 | 0.00 | 73 | 1013.3 |
| 20260506114434 | 18 | 134 | 0.0 | 3.2 | 0.00 | 0.00 | 0.00 | 73 | 1013.5 |
| 20260506113933 | 18 | 126 | 3.2 | 3.2 | 0.00 | 0.00 | 0.00 | 73 | 1013.2 |
| 20260506113430 | 18 | 118 | 1.6 | 3.2 | 0.00 | 0.00 | 0.00 | 73 | 1013.2 |
| 20260506112926 | 17 | 14 | 1.6 | 4.8 | 0.00 | 0.00 | 0.00 | 73 | 1013.5 |
| 20260506112424 | 17 | 113 | 3.2 | 3.2 | 0.00 | 0.00 | 0.00 | 74 | 1013.3 |
| 20260506111921 | 17 | 140 | 3.2 | 4.8 | 0.00 | 0.00 | 0.00 | 73 | 1013.4 |
| 20260506111419 | 17 | 149 | 3.2 | 4.8 | 0.00 | 0.00 | 0.00 | 74 | 1013.5 |
| 20260506110916 | 17 | 146 | 1.6 | 4.8 | 0.00 | 0.00 | 0.00 | 73 | 1013.2 |
| 20260506110414 | 17 | 142 | 1.6 | 3.2 | 0.00 | 0.00 | 0.00 | 73 | 1013.2 |
| 20260506105910 | 17 | 146 | 3.2 | 4.8 | 0.00 | 0.00 | 0.00 | 73 | 1013.2 |
| 20260506105406 | 17 | 138 | 0.0 | 3.2 | 0.00 | 0.00 | 0.00 | 73 | 1013.2 |
| 20260506104904 | 17 | 115 | 1.6 | 3.2 | 0.00 | 0.00 | 0.00 | 73 | 1013.3 |
| 20260506104402 | 17 | 141 | 3.2 | 3.2 | 0.00 | 0.00 | 0.00 | 73 | 1013.2 |
| 20260506103900 | 17 | 141 | 1.6 | 4.8 | 0.00 | 0.00 | 0.00 | 72 | 1013.3 |
| 20260506103357 | 17 | 62 | 0.0 | 4.8 | 0.00 | 0.00 | 0.00 | 72 | 1013.5 |
| 20260506102854 | 17 | 187 | 1.6 | 3.2 | 0.00 | 0.00 | 0.00 | 73 | 1013.4 |
| 20260506102352 | 17 | 129 | 1.6 | 3.2 | 0.00 | 0.00 | 0.00 | 74 | 1013.6 |
| 20260506101848 | 17 | 83 | 1.6 | 4.8 | 0.00 | 0.00 | 0.00 | 73 | 1013.7 |
| 20260506101345 | 17 | 91 | 3.2 | 6.4 | 0.00 | 0.00 | 0.00 | 74 | 1013.6 |
| 20260506100843 | 17 | 152 | 3.2 | 3.2 | 0.00 | 0.00 | 0.00 | 73 | 1013.4 |
| 20260506100341 | 17 | 145 | 1.6 | 3.2 | 0.00 | 0.00 | 0.00 | 73 | 1013.4 |
| 20260506095839 | 17 | 243 | 4.8 | 4.8 | 0.00 | 0.00 | 0.00 | 73 | 1013.4 |